EW2997 Weather Reports


time (UTC)temp
F
wind
direction
speed
knots
gust
knots
rain 1hr
in
rain 24hr
in
rain mn
in
humidity
%
barometer
mb
20260902074936 70 25 0.0 0.0 0.00 0.00 0.00 95 1021.5
20260902071933 71 25 0.0 0.0 0.00 0.00 0.00 95 1021.5
20260902064931 71 26 1.7 1.7 0.00 0.00 0.00 94 1021.2
20260902061928 72 26 0.0 0.0 0.00 0.00 0.00 93 1021.2
20260902054926 73 26 0.0 0.0 0.00 0.00 0.00 91 1021.5
20260902051924 74 26 0.9 0.9 0.00 0.00 0.00 88 1021.9
20260902044921 76 26 0.0 0.0 0.00 0.00 0.00 85 1021.9
20260902041920 77 140 2.6 3.5 0.00 0.00 0.00 77 1021.5
20260902034920 73 149 0.0 0.0 0.00 0.00 0.00 90 1021.2
20260902031920 74 149 0.9 0.9 0.00 0.00 0.00 88 1020.5
20260902024919 76 149 0.0 0.0 0.00 0.00 0.00 81 1020.2
20260902021919 76 229 0.9 0.9 0.00 0.00 0.00 84 1019.8
20260902014914 76 229 1.7 1.7 0.00 0.00 0.00 87 1020.2
20260902011909 78 229 1.7 1.7 0.00 0.00 0.00 80 1020.2
20260902004906 82 240 1.7 1.7 0.00 0.00 0.00 68 1019.5
20260902001903 83 236 1.7 1.7 0.00 0.00 0.00 68 1019.0
20260901234901 83 242 2.6 2.6 0.00 0.00 0.00 68 1018.7
20260901231902 85 282 0.0 0.0 0.00 0.00 0.00 63 1018.4
20260901224901 85 270 1.7 1.7 0.00 0.00 0.00 60 1018.4
20260901221859 87 271 1.7 1.7 0.00 0.00 0.00 59 1018.4
20260901214857 89 277 1.7 1.7 0.00 0.00 0.00 53 1018.4
20260901211854 90 276 1.7 1.7 0.00 0.00 0.00 54 1018.4
20260901204849 91 342 1.7 1.7 0.00 0.00 0.00 47 1018.4
20260901201844 90 292 2.6 3.5 0.00 0.00 0.00 54 1018.4
20260901194844 90 311 2.6 3.5 0.00 0.00 0.00 50 1018.7
20260901191843 91 268 1.7 1.7 0.00 0.00 0.00 49 1018.7
20260901184839 90 243 3.5 3.5 0.00 0.00 0.00 54 1019.5
20260901181838 89 6 2.6 2.6 0.00 0.00 0.00 56 1019.8
20260901174837 88 336 3.5 3.5 0.00 0.00 0.00 58 1019.8
20260901171834 86 210 7.0 7.8 0.00 0.00 0.00 65 1019.8
20260901164830 85 246 3.5 3.5 0.00 0.00 0.00 70 1020.2
20260901161825 81 240 1.7 1.7 0.00 0.00 0.00 78 1020.5
20260901154820 81 234 1.7 1.7 0.00 0.00 0.00 78 1020.5
20260901151819 79 230 1.7 1.7 0.00 0.00 0.00 79 1020.8
20260901144816 78 238 1.7 1.7 0.00 0.00 0.00 82 1020.8
20260901141811 77 257 0.9 0.9 0.00 0.00 0.00 81 1021.2
20260901134806 78 192 0.9 0.9 0.00 0.00 0.00 83 1021.2
20260901131805 76 189 0.0 0.0 0.00 0.00 0.00 88 1021.2
20260901124805 73 186 0.0 0.0 0.00 0.00 0.00 93 1021.2
20260901121805 71 186 0.0 0.0 0.00 0.00 0.00 94 1021.5
20260901114801 69 186 0.0 0.0 0.00 0.00 0.00 97 1021.5
20260901111756 68 186 0.0 0.0 0.00 0.00 0.00 97 1021.5
20260901104753 69 185 0.0 0.0 0.00 0.00 0.00 97 1021.2
20260901101751 69 185 0.0 0.0 0.00 0.00 0.00 97 1021.2
20260901094748 69 185 1.7 1.7 0.00 0.00 0.00 97 1020.8
20260901091748 69 185 0.0 0.0 0.00 0.00 0.00 97 1021.2
20260901084743 69 185 0.0 0.0 0.00 0.00 0.00 97 1021.2
20260901081740 69 185 0.0 0.0 0.00 0.00 0.00 97 1021.2